Weather History for KCOD - April, 2015

Change the Weather History Date:

Tuesday, April 14, 2015

  Actual Average Record
Temperature  
Mean Temperature 56 °F -  
Max Temperature 73 °F 57 °F 78 °F (1963)
Min Temperature 39 °F 29 °F 12 °F (1983)
Degree Days  
Heating Degree Days 9    
Growing Degree Days 6 (Base 50)    
Moisture  
Dew Point 21 °F    
Average Humidity 30    
Maximum Humidity 65    
Minimum Humidity 11    
Precipitation  
Precipitation 0.00 in - - ()
Sea Level Pressure  
Sea Level Pressure 29.69 in    
Wind  
Wind Speed 8 mph (SSW)    
Max Wind Speed 18 mph    
Max Gust Speed 28 mph    
Visibility 10 miles    
Events      
Averages and records for this station are not official NWS values.
T = Trace of Precipitation, MM = Missing Value Source: NWS Daily Summary

Daily Weather History Graph

Daily Weather History Graph

Search for Another Location

Airport or City:

Trip Planner

Search our weather history database for the weather conditions in past years. The results will help you decide how hot, cold, wet, or windy it might be!

Date:

Astronomy

Apr. 14, 2015 Rise Set
Actual Time 6:34 AM MDT 7:59 PM MDT
Civil Twilight 6:03 AM MDT 8:29 PM MDT
Nautical Twilight 5:27 AM MDT 9:06 PM MDT
Astronomical Twilight 4:48 AM MDT 9:45 PM MDT
Moon 4:07 AM MDT (4/14) 3:18 PM MDT (4/14)
Length of Visible Light 14h 25m
Length of Day
13h 25m
Waning Crescent, 22% of the Moon is Illuminated
Apr 14
Waning Crescent
Apr 18
New
Apr 25
First Quarter
May 3
Full
May 11
Last Quarter

Hourly Weather History & Observations

Time (MDT) Temp. Windchill Dew Point Humidity Pressure Visibility Wind Dir Wind Speed Gust Speed Precip Events Conditions
12:15 AM 42.8 °F 38.6 °F 17.6 °F 36% 29.95 in 10.0 mi South 6.9 mph - N/A   Clear
12:35 AM 42.8 °F 38.0 °F 19.4 °F 39% 29.94 in 10.0 mi SW 8.1 mph - N/A   Clear
12:55 AM 44.6 °F 42.2 °F 17.6 °F 34% 29.94 in 10.0 mi SSE 4.6 mph - N/A   Clear
1:15 AM 44.6 °F 42.2 °F 17.6 °F 34% 29.93 in 10.0 mi SSW 4.6 mph - N/A   Clear
1:35 AM 46.4 °F 43.5 °F 19.4 °F 34% 29.92 in 10.0 mi South 5.8 mph - N/A   Clear
1:55 AM 44.6 °F 39.7 °F 17.6 °F 34% 29.92 in 10.0 mi South 9.2 mph - N/A   Clear
2:15 AM 44.6 °F 39.7 °F 17.6 °F 34% 29.91 in 10.0 mi SSW 9.2 mph - N/A   Clear
2:35 AM 44.6 °F 40.7 °F 17.6 °F 34% 29.90 in 10.0 mi South 6.9 mph - N/A   Clear
2:55 AM 44.6 °F 40.7 °F 19.4 °F 37% 29.90 in 10.0 mi SSE 6.9 mph - N/A   Clear
3:15 AM 46.4 °F 43.5 °F 17.6 °F 32% 29.89 in 10.0 mi South 5.8 mph - N/A   Clear
3:35 AM 44.6 °F 40.7 °F 17.6 °F 34% 29.88 in 10.0 mi South 6.9 mph - N/A   Clear
3:55 AM 44.6 °F 43.1 °F 17.6 °F 34% 29.87 in 10.0 mi West 3.5 mph - N/A   Clear
4:15 AM 44.6 °F 40.2 °F 19.4 °F 37% 29.86 in 10.0 mi South 8.1 mph - N/A   Clear
4:35 AM 46.4 °F 42.4 °F 19.4 °F 34% 29.85 in 10.0 mi SSW 8.1 mph - N/A   Clear
4:55 AM 44.6 °F 41.4 °F 19.4 °F 37% 29.84 in 10.0 mi South 5.8 mph - N/A   Clear
5:15 AM 42.8 °F 38.6 °F 19.4 °F 39% 29.83 in 10.0 mi SE 6.9 mph - N/A   Clear
5:35 AM 42.8 °F 39.3 °F 19.4 °F 39% 29.81 in 10.0 mi SSW 5.8 mph - N/A   Clear
5:55 AM 42.8 °F 39.3 °F 21.2 °F 42% 29.81 in 10.0 mi SE 5.8 mph - N/A   Clear
6:15 AM 39.2 °F 33.6 °F 19.4 °F 45% 29.81 in 10.0 mi South 8.1 mph - N/A   Clear
6:35 AM 39.2 °F 35.9 °F 19.4 °F 45% 29.79 in 10.0 mi SE 4.6 mph - N/A   Clear
6:55 AM 39.2 °F 34.2 °F 19.4 °F 45% 29.79 in 10.0 mi SE 6.9 mph - N/A   Clear
7:15 AM 42.8 °F 38.0 °F 19.4 °F 39% 29.79 in 10.0 mi SSE 8.1 mph - N/A   Clear
7:35 AM 42.8 °F 37.0 °F 19.4 °F 39% 29.78 in 10.0 mi South 10.4 mph - N/A   Clear
7:55 AM 42.8 °F 38.6 °F 19.4 °F 39% 29.78 in 10.0 mi South 6.9 mph - N/A   Clear
8:15 AM 44.6 °F - 21.2 °F 39% 29.78 in 10.0 mi Calm Calm - N/A   Clear
8:35 AM 46.4 °F 42.4 °F 23.0 °F 40% 29.76 in 10.0 mi South 8.1 mph - N/A   Clear
8:55 AM 46.4 °F - 21.2 °F 37% 29.75 in 10.0 mi Calm Calm - N/A   Clear
9:15 AM 48.2 °F - 23.0 °F 37% 29.74 in 10.0 mi NW 3.5 mph - N/A   Clear
9:35 AM 51.8 °F - 24.8 °F 35% 29.74 in 10.0 mi WNW 4.6 mph - N/A   Clear
9:55 AM 55.4 °F - 24.8 °F 31% 29.72 in 10.0 mi South 4.6 mph - N/A   Clear
10:15 AM 57.2 °F - 26.6 °F 31% 29.71 in 10.0 mi SSE 9.2 mph - N/A   Clear
10:35 AM 60.8 °F - 24.8 °F 25% 29.70 in 10.0 mi East 3.5 mph - N/A   Clear
10:55 AM 64.4 °F - 24.8 °F 22% 29.69 in 10.0 mi ESE 3.5 mph - N/A   Clear
11:15 AM 66.2 °F - 23.0 °F 19% 29.68 in 10.0 mi SW 4.6 mph - N/A   Clear
11:35 AM 69.8 °F - 17.6 °F 14% 29.67 in 10.0 mi SSW 11.5 mph - N/A   Clear
11:55 AM 69.8 °F - 17.6 °F 14% 29.65 in 10.0 mi South 8.1 mph - N/A   Clear
12:15 PM 71.6 °F - 17.6 °F 13% 29.64 in 10.0 mi SW 13.8 mph 24.2 mph N/A   Clear
12:35 PM 71.6 °F - 17.6 °F 13% 29.62 in 10.0 mi WSW 12.7 mph 17.3 mph N/A   Clear
12:55 PM 69.8 °F - 15.8 °F 13% 29.61 in 10.0 mi South 8.1 mph 17.3 mph N/A   Clear
1:15 PM 69.8 °F - 15.8 °F 13% 29.60 in 10.0 mi South 9.2 mph 19.6 mph N/A   Clear
1:35 PM 71.6 °F - 15.8 °F 12% 29.58 in 10.0 mi SW 5.8 mph - N/A   Clear
1:55 PM 73.4 °F - 15.8 °F 11% 29.57 in 10.0 mi WSW 9.2 mph 18.4 mph N/A   Clear
2:15 PM 71.6 °F - 15.8 °F 12% 29.57 in 10.0 mi SSW 9.2 mph 18.4 mph N/A   Clear
2:35 PM 73.4 °F - 15.8 °F 11% 29.56 in 10.0 mi SSW 9.2 mph 20.7 mph N/A   Clear
2:55 PM 71.6 °F - 15.8 °F 12% 29.54 in 10.0 mi SSW 13.8 mph 17.3 mph N/A   Clear
3:15 PM 71.6 °F - 14.0 °F 11% 29.54 in 10.0 mi WSW 9.2 mph - N/A   Clear
3:35 PM 73.4 °F - 15.8 °F 11% 29.53 in 10.0 mi SSW 17.3 mph 25.3 mph N/A   Clear
3:55 PM 73.4 °F - 15.8 °F 11% 29.52 in 10.0 mi South 13.8 mph 24.2 mph N/A   Partly Cloudy
4:15 PM 71.6 °F - 15.8 °F 12% 29.51 in 10.0 mi South 16.1 mph - N/A   Partly Cloudy
4:35 PM 71.6 °F - 15.8 °F 12% 29.50 in 10.0 mi South 9.2 mph 19.6 mph N/A   Partly Cloudy
4:55 PM 71.6 °F - 15.8 °F 12% 29.50 in 10.0 mi SSW 10.4 mph 21.9 mph N/A   Clear
5:15 PM 69.8 °F - 15.8 °F 13% 29.50 in 10.0 mi SW 15.0 mph - N/A   Clear
5:35 PM 71.6 °F - 17.6 °F 13% 29.50 in 10.0 mi SW 9.2 mph 20.7 mph N/A   Partly Cloudy
5:55 PM 71.6 °F - 17.6 °F 13% 29.50 in 10.0 mi SW 16.1 mph 20.7 mph N/A   Clear
6:15 PM 69.8 °F - 19.4 °F 15% 29.50 in 10.0 mi West 18.4 mph 26.5 mph N/A   Clear
6:35 PM 66.2 °F - 23.0 °F 19% 29.50 in 10.0 mi West 13.8 mph 24.2 mph N/A   Clear
6:55 PM 64.4 °F - 23.0 °F 21% 29.50 in 10.0 mi West 12.7 mph 23.0 mph N/A   Clear
7:15 PM 64.4 °F - 23.0 °F 21% 29.51 in 10.0 mi WSW 8.1 mph 16.1 mph N/A   Clear
7:35 PM 62.6 °F - 24.8 °F 24% 29.51 in 10.0 mi West 18.4 mph 26.5 mph N/A   Clear
7:55 PM 60.8 °F - 24.8 °F 25% 29.53 in 10.0 mi WSW 18.4 mph 27.6 mph N/A   Clear
8:15 PM 59.0 °F - 26.6 °F 29% 29.53 in 10.0 mi WSW 10.4 mph 24.2 mph N/A   Clear
8:35 PM 59.0 °F - 26.6 °F 29% 29.55 in 10.0 mi West 12.7 mph 23.0 mph N/A   Clear
8:55 PM 57.2 °F - 28.4 °F 33% 29.58 in 10.0 mi North 11.5 mph 24.2 mph N/A   Clear
9:15 PM 55.4 °F - 28.4 °F 36% 29.61 in 10.0 mi NNE 18.4 mph 26.5 mph N/A   Clear
9:35 PM 51.8 °F - 30.2 °F 44% 29.65 in 10.0 mi North 13.8 mph 17.3 mph N/A   Clear
9:55 PM 51.8 °F - 30.2 °F 44% 29.65 in 10.0 mi NNW 11.5 mph - N/A   Scattered Clouds
10:15 PM 51.8 °F - 30.2 °F 44% 29.65 in 10.0 mi North 15.0 mph 19.6 mph N/A   Mostly Cloudy
10:35 PM 48.2 °F - 32.0 °F 54% 29.65 in 10.0 mi North 10.4 mph - N/A   Overcast
10:55 PM 46.4 °F 39.8 °F 30.2 °F 53% 29.66 in 10.0 mi NNE 16.1 mph - N/A   Overcast
11:15 PM 44.6 °F 38.1 °F 30.2 °F 57% 29.66 in 10.0 mi North 13.8 mph - N/A   Overcast
11:35 PM 42.8 °F 35.4 °F 28.4 °F 57% 29.68 in 10.0 mi NNE 15.0 mph 23.0 mph N/A   Overcast
11:55 PM 39.2 °F 30.5 °F 28.4 °F 65% 29.71 in 10.0 mi North 16.1 mph 20.7 mph N/A   Overcast